Location: Berg
(48.4333°N, 13.9167°E)
Time: 11:57:47
(UTC+00:00)

ATLAS CENTAUR R/B - Pass Details

Date: 18 January 2021
Orbit: 471 x 674 km, 64.6° (Epoch: 28 February)

Event Time Altitude Azimuth Distance (km) Brightness Sun altitude
Rises 05:44:27 0° 181° (S) 2,536 5.0 -10.5°
Reaches altitude 10° 05:46:59 10° 164° (SSE) 1,644 4.3 -10.1°
Maximum altitude 05:49:42 20° 116° (ESE) 1,150 4.2 -9.6°
Drops below altitude 10° 05:52:24 10° 68° (ENE) 1,639 4.5 -9.2°
Sets 05:54:55 0° 51° (NE) 2,526 5.1 -8.8°
